ARIANE 42P R/B

Satellite information

Favourite Embed

Satellite Type and Status

ROCKET BODYIN ORBIT

Key statistics

Satellite ARIANE 42P R/B at a glance.

Uptime

12763

Days in orbit

Revolutions

≈ 5.5

Per day

Orbit

MEO

Medium Earth Orbit

Inclination

7.1

Latest

Satellite identification and parameters

Extended collection of information and parameters for ARIANE 42P R/B.

Object identification

Identified? True

Debris? False

Object name: ARIANE 42P R/B

International designator: 1990-100C

Object number (NORAD): 20947

Object ID (CCSDS): 20947

Country: FRANCE (FR)

Current information (Y/N): Y

RCS size: LARGE

Orbital parameters

Period: 263.518 minutes

Inclination: 7.0553 deg

SMA: 13615.517 km

Apoapsis: 14331.095 km

Periapsis: 143.669 km

RAAN: 123.8699 deg

Eccentricy: 0.52100209

Argument of periapsis: 143.836 deg

Mean anomaly: 266.4398 deg

Mean motion: 5.46451422 rev/day

Mean motion (dot): 0.00754949 rev/day2

B* drag term: 0.0012303968 1/REarth

Two-line elements (TLE)

Creation date: Oct. 30, 2025, 3:32 a.m.

Reference frame: TEME

Reference center: EARTH

Epoch: Oct. 29, 2025, 10:04 p.m. UTC

TLE line 0: 0 ARIANE 42P R/B

TLE line 1: 1 20947U 90100C 25302.91981194 .00754949 -30143-6 12304-2 0 9994

TLE line 2: 2 20947 7.0553 123.8699 5210021 143.8360 266.4398 5.46451422370885

Live tracking on map

Real-time ground track for satellite ARIANE 42P R/B.

In-orbit conjunctions

A list of the most updated potential collisions computed for object ARIANE 42P R/B.

Target Orbit TCA Probability of collision Miss distance Type
ARIANE 5 DEB (SYLDA) GTO 2024-08-24 10:54:15 TBA 3917.0 (m) DEBRIS

Associated space launch

Geostationary communications satellites

ARIANE 42P R/B was lifted into orbit during the mission ‘Ariane 42P | Satcom C1 & GStar 4’, on board a Ariane 42P space rocket.

The launch took place on Nov. 20, 1990, 11:11 p.m. from Ariane Launch Area 2.

For more information about the launch, click the button.

Launch to space Ariane 42P | Satcom C1 & GStar 4
Ariane 42P | Satcom C1 & GStar 4

Agency: N/A

Status: Launch Successful

Launch date: Nov. 20, 1990, 11:11 p.m. UTC

Rocket: Ariane 42P

Launch pad: Ariane Launch Area 2

Location: Guiana Space Centre, French Guiana

...

Latest news about this satellite

There are no fresh news available about this satellite. Check back as we update our databases every day.


Newsletter sign-up

Weekly statistics, charts and insights to help you stay on top of the space industry.